Home   Weather   Santos   Past weeks

Flag for Brazil Past Weather in Santos, São Paulo, Brazil — Yesterday and Last 2 Weeks

Now
61 °F

Low clouds.


Feels Like: 61 °F
Forecast: 66 / 75 °F
Wind: 9 mph from Southeast

Location: Sao Paulo Airport

Current Time: Apr 29, 2017 at 10:22:11 pm

Latest Report: Apr 29, 2017 at 10:00 pm


Visibility: N/A

Pressure: 30.30 "Hg

Humidity: 83%

Dew Point: 55 °F

Location of SantosLocation

Past Weather in Santos — Graph

°F

Santos Temperature Yesterday

Maximum temperature yesterday: 61 °F (at 12:00 pm)
Minimum temperature yesterday: 55 °F (at 7:00 am)
Average temperature yesterday: 58 °F

High & Low Weather Summary for the Past Weeks

 TemperatureHumidityPressure
High84 °F (Apr 16, 2:00 pm)94% (Apr 15, 2:42 am)30.30 "Hg (Apr 15, 2:42 am)
Low55 °F (Apr 28, 7:00 am)30% (Apr 27, 12:00 pm)29.89 "Hg (Apr 26, 3:00 am)
Average66 °F78%30.11 "Hg
* Reported Apr 14 9:00 pm — Apr 29 9:00 pm, Santos, Weather by CustomWeather, © 2017

Note: Actual official high and low records may vary slightly from our data, if they occured in-between our weather recording intervals... More about our weather records

Advertising

Santos Weather History for the Previous 24 Hours

Scroll right to see more
 ConditionsComfort  
Time TempWeatherWind HumidityBarometerVisibility
9:00 pm
Sat, Apr 29
61 °FOvercast.9 mph88%30.30 "HgN/A
8:00 pm59 °FMostly cloudy.10 mph88%30.30 "HgN/A
7:00 pm61 °FMostly cloudy.12 mph83%30.27 "HgN/A
6:00 pm61 °FMostly cloudy.9 mph88%30.27 "HgN/A
5:00 pm61 °FMore clouds than sun.13 mph83%30.27 "HgN/A
4:00 pm63 °FMore clouds than sun.13 mph77%30.24 "HgN/A
3:00 pm63 °FMore clouds than sun.10 mph83%30.24 "HgN/A
2:00 pm63 °FOvercast.13 mph83%30.24 "HgN/A
1:00 pm66 °FMore clouds than sun.6 mph68%30.24 "HgN/A
12:00 pm66 °FOvercast.8 mph68%30.24 "HgN/A
11:00 am64 °FBroken clouds.9 mph73%N/AN/A
10:00 am64 °FBroken clouds.9 mph73%30.30 "HgN/A
9:00 am61 °FMore clouds than sun.7 mph83%30.27 "HgN/A
8:00 am59 °FCloudy.10 mph82%30.27 "HgN/A
7:00 am59 °FMostly cloudy.8 mph82%N/AN/A
6:00 am59 °FOvercast.8 mph82%30.24 "HgN/A
5:00 am57 °FOvercast.5 mph88%30.21 "HgN/A
4:32 am57 °FMostly cloudy.8 mph88%30.21 "HgN/A
4:05 am57 °FMostly cloudy.7 mph88%30.21 "HgN/A
4:00 am57 °FMostly cloudy.7 mph88%30.21 "HgN/A
3:26 am57 °FMostly cloudy.7 mph88%30.21 "HgN/A
3:12 am57 °FOvercast.8 mph88%30.24 "HgN/A
3:00 am57 °FMostly cloudy.8 mph88%30.24 "HgN/A
2:20 am57 °FMostly cloudy.8 mph88%30.24 "HgN/A
2:00 am57 °FMostly cloudy.8 mph88%30.24 "HgN/A
1:36 am57 °FMostly cloudy.7 mph88%30.24 "HgN/A
1:00 am57 °FMostly cloudy.7 mph88%30.27 "HgN/A
12:00 am57 °FMostly cloudy.8 mph88%30.27 "HgN/A
11:01 pm
Fri, Apr 28
57 °FLow clouds.10 mph88%30.27 "HgN/A
11:00 pm57 °FLow clouds.9 mph88%30.30 "HgN/A
10:00 pm57 °FMostly cloudy.7 mph88%30.30 "HgN/A
Weather by CustomWeather, © 2017

See weather overviewHow to use our weather pages